Weather WX

World > North America > United States > Mississippi

Wells Town, Mississippi Regional Weather

Lat: 31.02N, Lon: 89.47W
Wx Zone: MSZ073
Feedback

Wells Town, MS Regional Weather

Expires:201906270100;;130296
ASUS44 KJAN 270010
RWRMS 

MISSISSIPPI HOURLY WEATHER ROUNDUP
NATIONAL WEATHER SERVICE JACKSON MS
700 PM CDT WED JUN 26 2019

NOTE: "FAIR: INDICATES FEW OR NO CLOUDS BELOW 12,000 FEET WITH NO
SIGNIFICANT WEATHER AND/OR OBSTRUCTIONS TO VISIBILITY.


MSZ059>079-270100-
SOUTH MISSISSIPPI
  
CITY           SKY/WX    TMP DP  RH WIND       PRES   REMARKS
BROOKHAVEN     FAIR      86  72  62 E3        30.15R HX  92           
HATTIESBURG    FAIR      87  70  56 SW5       30.13S HX  92           
6HR MIN TEMP:  85; 6HR MAX TEMP:  90;                                

LAUREL         CLEAR     87  73  64 S5        30.13R HX  94           
MCCOMB         FAIR      86  70  58 S6        30.13S HX  90           
6HR MIN TEMP:  86; 6HR MAX TEMP:  91;                                

NATCHEZ        FAIR      87  74  64 S5        30.13S HX  95           
6HR MIN TEMP:  85; 6HR MAX TEMP:  91;                                

PINE BELT      FAIR      85  72  65 S5        30.14R HX  91           
6HR MIN TEMP:  85; 6HR MAX TEMP:  89;                                

$$


SKY/WX - Weather  TMP - Temperature  DP - Dew Point  RH - Relative Humidity
WIND - Wind Direction/Speed PRES - Barometric Pressure VSB - Visibility
WCI - Wind Chill Index E13G22 Wind - East Wind 13 mph/Gusts of 22 mph